CW2654 Weather Reports


Display with metric or nautical units.
time (UTC)temp
F
wind
direction
speed
MPH
gust
MPH
rain 1hr
in
rain 24hr
in
rain mn
in
humidity
%
barometer
mb
20260510030059 63 105 1.0 3.0 0.00 0.00 0.00 74 1015.3
20260510024554 65 0 0.0 0.0 0.00 0.00 0.00 71 1015.2
20260510023052 67 0 0.0 2.0 0.00 0.00 0.00 68 1015.3
20260510021641 70 164 1.0 2.0 0.00 0.00 0.00 62 1015.4
20260510020059 72 0 0.0 1.0 0.00 0.00 0.00 53 1015.3
20260510014558 71 0 0.0 1.0 0.00 0.00 0.00 47 1015.4
20260510013100 71 0 0.0 1.0 0.00 0.00 0.00 51 1015.6
20260510011552 72 231 0.0 2.0 0.00 0.00 0.00 49 1015.5
20260510010059 72 0 0.0 3.0 0.00 0.00 0.00 50 1015.8
20260510004555 73 0 0.0 3.0 0.00 0.00 0.00 52 1015.7
20260510003103 73 0 1.0 5.0 0.00 0.00 0.00 51 1015.9
20260510001603 74 0 2.0 7.0 0.00 0.00 0.00 51 1016.1
20260510000054 73 0 0.0 8.0 0.00 0.00 0.00 54 1015.9
20260509234553 73 303 0.0 7.0 0.00 0.00 0.00 57 1016.0
20260509233051 73 0 1.0 4.0 0.00 0.00 0.00 56 1016.1
20260509231553 74 0 0.0 7.0 0.00 0.00 0.00 60 1016.3
20260509230054 73 0 2.0 7.0 0.00 0.00 0.00 56 1016.5
20260509224553 74 0 0.0 4.0 0.00 0.00 0.00 57 1016.9
20260509223053 74 0 1.0 8.0 0.00 0.00 0.00 59 1016.8
20260509221550 73 0 0.0 6.0 0.00 0.00 0.00 58 1017.1
20260509220052 73 265 0.0 4.0 0.00 0.00 0.00 62 1017.2
20260509214552 72 322 1.0 6.0 0.00 0.00 0.00 59 1017.4
20260509213108 71 310 2.0 6.0 0.00 0.00 0.00 58 1017.4
20260509211602 71 17 1.0 8.0 0.00 0.00 0.00 56 1017.5
20260509210053 70 22 1.0 5.0 0.00 0.00 0.00 58 1017.7
20260509204556 69 348 2.0 6.0 0.00 0.00 0.00 61 1017.8
20260509203053 69 352 1.0 7.0 0.00 0.00 0.00 59 1018.0
20260509201603 68 322 2.0 11.0 0.00 0.00 0.00 59 1018.1
20260509200057 66 302 1.0 5.0 0.00 0.00 0.00 60 1018.2
20260509194558 65 298 1.0 6.0 0.00 0.00 0.00 59 1018.2
20260509193057 65 281 2.0 5.0 0.00 0.00 0.00 61 1018.7
20260509191606 64 316 0.0 5.0 0.00 0.00 0.00 68 1018.9
20260509190055 63 326 2.0 6.0 0.00 0.00 0.00 67 1019.1
20260509184610 62 282 2.0 5.0 0.00 0.00 0.00 69 1019.4
20260509183100 61 338 2.0 5.0 0.00 0.00 0.00 70 1019.3
20260509181602 61 304 1.0 5.0 0.00 0.00 0.00 75 1019.3
20260509180115 60 0 1.0 4.0 0.00 0.00 0.00 78 1019.5
20260509174558 59 0 2.0 5.0 0.00 0.00 0.00 78 1019.7
20260509173106 59 348 1.0 4.0 0.00 0.00 0.00 80 1020.0
20260509171559 58 342 1.0 4.0 0.00 0.00 0.00 77 1020.0
20260509170055 57 348 0.0 4.0 0.00 0.00 0.00 79 1020.3
20260509164558 56 343 1.0 3.0 0.00 0.00 0.00 80 1020.5
20260509163056 56 5 1.0 5.0 0.00 0.00 0.00 83 1020.7
20260509161601 55 0 0.0 0.0 0.00 0.00 0.00 87 1020.7
20260509160058 53 0 0.0 0.0 0.00 0.00 0.00 90 1020.6
20260509154552 51 0 0.0 0.0 0.00 0.00 0.00 93 1020.8
20260509153059 50 0 0.0 0.0 0.00 0.00 0.00 95 1021.0
20260509151552 49 0 0.0 0.0 0.00 0.00 0.00 97 1021.3
20260509150049 47 0 0.0 0.0 0.00 0.00 0.00 99 1021.1
20260509144555 46 0 0.0 0.0 0.00 0.00 0.00 98 1021.0
20260509143050 45 0 0.0 0.0 0.00 0.00 0.00 98 1021.1
20260509141550 44 0 0.0 0.0 0.00 0.00 0.00 98 1021.1
20260509140106 43 0 0.0 0.0 0.00 0.00 0.00 98 1021.0
20260509134554 42 0 0.0 0.0 0.00 0.00 0.00 97 1021.0
20260509133054 42 0 0.0 1.0 0.00 0.00 0.00 97 1021.0
20260509131555 41 0 0.0 0.0 0.00 0.00 0.00 97 1021.0
20260509130054 41 0 0.0 0.0 0.00 0.00 0.00 97 1021.0
20260509124554 41 0 0.0 0.0 0.00 0.00 0.00 97 1021.3
20260509123053 41 0 0.0 0.0 0.00 0.00 0.00 96 1021.1
20260509121550 42 0 0.0 1.0 0.00 0.00 0.00 97 1020.8
20260509120054 42 0 0.0 0.0 0.00 0.00 0.00 96 1021.1
20260509114551 42 0 0.0 1.0 0.00 0.00 0.00 96 1021.1
20260509113053 42 0 0.0 2.0 0.00 0.00 0.00 96 1021.4
20260509111552 42 0 0.0 1.0 0.00 0.00 0.00 96 1021.6
20260509110053 42 0 0.0 1.0 0.00 0.00 0.00 95 1021.6
20260509104557 43 0 0.0 2.0 0.00 0.00 0.00 96 1021.7
20260509103104 43 108 0.0 3.0 0.00 0.00 0.00 95 1021.7
20260509101552 44 107 1.0 2.0 0.00 0.00 0.00 95 1021.7
20260509100055 44 0 0.0 2.0 0.00 0.00 0.00 95 1021.8
20260509094600 44 105 1.0 3.0 0.00 0.00 0.00 94 1021.7
20260509093059 45 113 0.0 2.0 0.00 0.00 0.00 94 1021.9
20260509091554 45 0 0.0 2.0 0.00 0.00 0.00 95 1022.0
20260509090059 46 0 0.0 3.0 0.00 0.00 0.00 94 1022.1
20260509084604 46 105 1.0 3.0 0.00 0.00 0.00 94 1022.3
20260509083104 46 115 0.0 3.0 0.00 0.00 0.00 93 1022.6
20260509081554 47 0 0.0 3.0 0.00 0.00 0.00 93 1022.5
20260509080052 48 110 0.0 3.0 0.00 0.00 0.00 92 1022.6
20260509074611 49 0 0.0 3.0 0.00 0.00 0.00 92 1022.7
20260509073107 50 104 1.0 3.0 0.00 0.00 0.00 91 1022.6
20260509071558 51 98 0.0 3.0 0.00 0.00 0.00 90 1022.8
20260509070059 52 0 0.0 2.0 0.00 0.00 0.00 89 1022.6
20260509064553 53 0 0.0 2.0 0.00 0.00 0.00 88 1022.6
20260509063102 53 0 0.0 2.0 0.00 0.00 0.00 88 1022.6
20260509061552 53 0 0.0 1.0 0.00 0.00 0.00 87 1022.5
20260509060109 54 0 0.0 2.0 0.00 0.00 0.00 86 1022.6
20260509054557 54 0 0.0 2.0 0.00 0.00 0.00 86 1022.6
20260509053116 54 0 0.0 2.0 0.00 0.00 0.00 85 1022.5
20260509051611 54 0 0.0 1.0 0.00 0.00 0.00 84 1022.4
20260509050058 55 0 0.0 2.0 0.00 0.00 0.00 83 1022.3
20260509044559 55 0 0.0 3.0 0.00 0.00 0.00 83 1022.2
20260509043100 55 0 0.0 3.0 0.00 0.00 0.00 82 1022.2
20260509041556 55 0 1.0 4.0 0.00 0.00 0.00 82 1022.0
20260509040108 55 105 0.0 3.0 0.00 0.00 0.00 81 1021.9
20260509034555 55 111 0.0 3.0 0.00 0.00 0.00 81 1021.8
20260509033116 56 0 0.0 3.0 0.00 0.00 0.00 80 1021.6
20260509031555 58 0 0.0 1.0 0.00 0.00 0.00 75 1021.5